Time,TemperatureF,DewpointF,PressureIn,WindDirection,WindDirectionDegrees,WindSpeedMPH,WindSpeedGustMPH,Humidity,HourlyPrecipIn,Conditions,Clouds,dailyrainin,SoftwareType,DateUTC
2013-12-17 00:01:00,34.5,29.3,29.84,North,-999,-999.0,-999.0,81,0.00,,,0.00,tws,2013-12-17 05:01:00,
2013-12-17 00:06:00,34.4,29.3,29.84,North,-999,-999.0,-999.0,81,0.00,,,0.00,tws,2013-12-17 05:06:00,
2013-12-17 00:11:00,34.1,29.0,29.84,North,-999,-999.0,-999.0,81,0.00,,,0.00,tws,2013-12-17 05:11:00,
2013-12-17 00:16:00,33.8,28.9,29.84,North,-999,-999.0,-999.0,81,0.00,,,0.00,tws,2013-12-17 05:16:00,
2013-12-17 00:21:00,33.8,29.1,29.83,North,-999,-999.0,-999.0,82,0.00,,,0.00,tws,2013-12-17 05:21:00,
2013-12-17 00:26:00,33.9,29.2,29.84,North,-999,-999.0,-999.0,82,0.00,,,0.00,tws,2013-12-17 05:26:00,
2013-12-17 00:31:00,34.0,29.4,29.84,North,-999,-999.0,-999.0,82,0.00,,,0.00,tws,2013-12-17 05:31:00,
2013-12-17 00:36:00,33.9,29.1,29.84,North,-999,-999.0,-999.0,82,0.00,,,0.00,tws,2013-12-17 05:36:00,
2013-12-17 00:41:00,33.9,29.2,29.83,North,-999,-999.0,-999.0,82,0.00,,,0.00,tws,2013-12-17 05:41:00,
2013-12-17 00:46:00,34.0,29.3,29.83,North,-999,-999.0,-999.0,82,0.00,,,0.00,tws,2013-12-17 05:46:00,
2013-12-17 00:51:00,34.0,29.3,29.83,North,-999,-999.0,-999.0,82,0.00,,,0.00,tws,2013-12-17 05:51:00,
2013-12-17 00:56:00,34.0,29.4,29.83,North,-999,-999.0,-999.0,83,0.00,,,0.00,tws,2013-12-17 05:56:00,
2013-12-17 01:01:00,33.9,29.3,29.83,North,-999,-999.0,-999.0,83,0.00,,,0.00,tws,2013-12-17 06:01:00,
2013-12-17 01:06:00,34.0,29.5,29.83,North,-999,-999.0,-999.0,83,0.00,,,0.00,tws,2013-12-17 06:06:00,
2013-12-17 01:11:00,33.8,29.4,29.83,North,-999,-999.0,-999.0,83,0.00,,,0.00,tws,2013-12-17 06:11:00,
2013-12-17 01:16:00,33.6,29.0,29.83,North,-999,-999.0,-999.0,83,0.00,,,0.00,tws,2013-12-17 06:16:00,
2013-12-17 01:21:00,33.4,29.1,29.82,North,-999,-999.0,-999.0,83,0.00,,,0.00,tws,2013-12-17 06:21:00,
2013-12-17 01:26:00,33.3,29.0,29.82,North,-999,-999.0,-999.0,84,0.00,,,0.00,tws,2013-12-17 06:26:00,
2013-12-17 01:31:00,33.1,29.0,29.82,North,-999,-999.0,-999.0,84,0.00,,,0.00,tws,2013-12-17 06:31:00,
2013-12-17 01:36:00,32.9,28.8,29.83,North,-999,-999.0,-999.0,84,0.00,,,0.00,tws,2013-12-17 06:36:00,
2013-12-17 01:41:00,32.7,28.7,29.83,North,-999,-999.0,-999.0,84,0.00,,,0.00,tws,2013-12-17 06:41:00,
2013-12-17 01:46:00,32.7,28.7,29.83,North,-999,-999.0,-999.0,85,0.00,,,0.00,tws,2013-12-17 06:46:00,
2013-12-17 01:51:00,32.7,28.8,29.83,North,-999,-999.0,-999.0,85,0.00,,,0.00,tws,2013-12-17 06:51:00,
2013-12-17 01:56:00,32.6,28.8,29.83,North,-999,-999.0,-999.0,85,0.00,,,0.00,tws,2013-12-17 06:56:00,
2013-12-17 02:01:00,32.7,29.0,29.83,North,-999,-999.0,-999.0,85,0.00,,,0.00,tws,2013-12-17 07:01:00,
2013-12-17 02:06:00,32.8,29.1,29.84,North,-999,-999.0,-999.0,86,0.00,,,0.00,tws,2013-12-17 07:06:00,
2013-12-17 02:11:00,32.7,29.0,29.84,North,-999,-999.0,-999.0,86,0.00,,,0.00,tws,2013-12-17 07:11:00,
2013-12-17 02:16:00,32.5,28.8,29.84,North,-999,-999.0,-999.0,86,0.00,,,0.00,tws,2013-12-17 07:16:00,
2013-12-17 02:21:00,32.4,28.8,29.84,North,-999,-999.0,-999.0,86,0.00,,,0.00,tws,2013-12-17 07:21:00,
2013-12-17 02:26:00,32.3,28.7,29.84,North,-999,-999.0,-999.0,86,0.00,,,0.00,tws,2013-12-17 07:26:00,
2013-12-17 02:31:00,32.2,28.8,29.84,North,-999,-999.0,-999.0,86,0.00,,,0.00,tws,2013-12-17 07:31:00,
2013-12-17 02:36:00,32.0,28.5,29.84,North,-999,-999.0,-999.0,86,0.00,,,0.00,tws,2013-12-17 07:36:00,
2013-12-17 02:41:00,31.9,28.6,29.84,North,-999,-999.0,-999.0,87,0.00,,,0.00,tws,2013-12-17 07:41:00,
2013-12-17 02:46:00,31.8,28.6,29.85,North,-999,-999.0,-999.0,87,0.00,,,0.00,tws,2013-12-17 07:46:00,
2013-12-17 02:51:00,31.5,28.3,29.85,North,-999,-999.0,-999.0,87,0.00,,,0.00,tws,2013-12-17 07:51:00,
2013-12-17 02:56:00,31.4,28.4,29.85,North,-999,-999.0,-999.0,88,0.00,,,0.00,tws,2013-12-17 07:56:00,
2013-12-17 03:01:00,31.3,28.3,29.85,North,-999,-999.0,-999.0,88,0.00,,,0.00,tws,2013-12-17 08:01:00,
2013-12-17 03:06:00,31.1,28.3,29.85,North,-999,-999.0,-999.0,89,0.00,,,0.00,tws,2013-12-17 08:06:00,
2013-12-17 03:11:00,31.1,28.4,29.86,North,-999,-999.0,-999.0,89,0.00,,,0.00,tws,2013-12-17 08:11:00,
2013-12-17 03:16:00,30.9,28.4,29.86,North,-999,-999.0,-999.0,90,0.00,,,0.00,tws,2013-12-17 08:16:00,
2013-12-17 03:21:00,30.9,28.4,29.86,North,-999,-999.0,-999.0,90,0.00,,,0.00,tws,2013-12-17 08:21:00,
2013-12-17 03:26:00,30.8,28.3,29.86,North,-999,-999.0,-999.0,90,0.00,,,0.00,tws,2013-12-17 08:26:00,
2013-12-17 03:31:00,30.6,28.4,29.86,North,-999,-999.0,-999.0,91,0.00,,,0.00,tws,2013-12-17 08:31:00,
2013-12-17 03:36:00,30.7,28.5,29.86,North,-999,-999.0,-999.0,91,0.00,,,0.00,tws,2013-12-17 08:36:00,
2013-12-17 03:41:00,30.7,28.4,29.86,North,-999,-999.0,-999.0,91,0.00,,,0.00,tws,2013-12-17 08:41:00,
2013-12-17 03:46:00,30.5,28.3,29.86,North,-999,-999.0,-999.0,91,0.00,,,0.00,tws,2013-12-17 08:46:00,
2013-12-17 03:51:00,30.4,28.3,29.85,North,-999,-999.0,-999.0,91,0.00,,,0.00,tws,2013-12-17 08:51:00,
2013-12-17 03:56:00,30.3,28.2,29.85,North,-999,-999.0,-999.0,91,0.00,,,0.00,tws,2013-12-17 08:56:00,
2013-12-17 04:01:00,30.3,28.3,29.85,North,-999,-999.0,-999.0,92,0.00,,,0.00,tws,2013-12-17 09:01:00,
2013-12-17 04:06:00,30.3,28.3,29.84,North,-999,-999.0,-999.0,92,0.00,,,0.00,tws,2013-12-17 09:06:00,
2013-12-17 04:11:00,30.2,28.3,29.84,North,-999,-999.0,-999.0,92,0.00,,,0.00,tws,2013-12-17 09:11:00,
2013-12-17 04:16:00,30.2,28.4,29.84,North,-999,-999.0,-999.0,92,0.00,,,0.00,tws,2013-12-17 09:16:00,
2013-12-17 04:21:00,30.3,28.6,29.84,North,-999,-999.0,-999.0,93,0.00,,,0.00,tws,2013-12-17 09:21:00,
2013-12-17 04:26:00,30.5,28.7,29.84,North,-999,-999.0,-999.0,93,0.00,,,0.00,tws,2013-12-17 09:26:00,
2013-12-17 04:31:00,30.5,28.7,29.84,North,-999,-999.0,-999.0,93,0.00,,,0.00,tws,2013-12-17 09:31:00,
2013-12-17 04:36:00,30.4,28.6,29.84,North,-999,-999.0,-999.0,92,0.00,,,0.00,tws,2013-12-17 09:36:00,
2013-12-17 04:41:00,30.4,28.6,29.84,North,-999,-999.0,-999.0,92,0.00,,,0.00,tws,2013-12-17 09:41:00,
2013-12-17 04:46:00,30.4,28.7,29.84,North,-999,-999.0,-999.0,93,0.00,,,0.00,tws,2013-12-17 09:46:00,
2013-12-17 04:51:00,30.4,28.7,29.84,North,-999,-999.0,-999.0,93,0.00,,,0.00,tws,2013-12-17 09:51:00,
2013-12-17 04:56:00,30.3,28.6,29.84,North,-999,-999.0,-999.0,93,0.00,,,0.00,tws,2013-12-17 09:56:00,
2013-12-17 05:01:00,30.3,28.5,29.84,North,-999,-999.0,-999.0,92,0.00,,,0.00,tws,2013-12-17 10:01:00,
2013-12-17 05:06:00,30.2,28.5,29.84,North,-999,-999.0,-999.0,93,0.00,,,0.00,tws,2013-12-17 10:06:00,
2013-12-17 05:11:00,30.0,28.1,29.84,North,-999,-999.0,-999.0,92,0.00,,,0.00,tws,2013-12-17 10:11:00,
2013-12-17 05:16:00,29.9,28.1,29.84,North,-999,-999.0,-999.0,93,0.00,,,0.00,tws,2013-12-17 10:16:00,
2013-12-17 05:21:00,29.8,28.1,29.84,North,-999,-999.0,-999.0,93,0.00,,,0.00,tws,2013-12-17 10:21:00,
2013-12-17 05:26:00,29.7,27.9,29.84,North,-999,-999.0,-999.0,93,0.00,,,0.00,tws,2013-12-17 10:26:00,
2013-12-17 05:31:00,29.5,27.8,29.84,North,-999,-999.0,-999.0,93,0.00,,,0.00,tws,2013-12-17 10:31:00,
2013-12-17 05:36:00,29.4,27.8,29.84,North,-999,-999.0,-999.0,93,0.00,,,0.00,tws,2013-12-17 10:36:00,
2013-12-17 05:41:00,29.4,27.9,29.84,North,-999,-999.0,-999.0,93,0.00,,,0.00,tws,2013-12-17 10:41:00,
2013-12-17 05:46:00,29.4,27.9,29.83,North,-999,-999.0,-999.0,93,0.00,,,0.00,tws,2013-12-17 10:46:00,
2013-12-17 05:51:00,29.4,28.0,29.84,North,-999,-999.0,-999.0,94,0.00,,,0.00,tws,2013-12-17 10:51:00,
2013-12-17 05:56:00,29.4,28.0,3.87,North,-999,-999.0,-999.0,94,0.00,,,0.00,tws,2013-12-17 10:56:00,
2013-12-17 06:01:00,29.3,27.8,29.84,North,-999,-999.0,-999.0,94,0.00,,,0.00,tws,2013-12-17 11:01:00,
2013-12-17 06:06:00,29.1,27.7,29.83,North,-999,-999.0,-999.0,94,0.00,,,0.00,tws,2013-12-17 11:06:00,
2013-12-17 06:11:00,29.1,27.8,29.84,North,-999,-999.0,-999.0,94,0.00,,,0.00,tws,2013-12-17 11:11:00,
2013-12-17 06:16:00,29.1,27.8,29.84,North,-999,-999.0,-999.0,94,0.00,,,0.00,tws,2013-12-17 11:16:00,
2013-12-17 06:21:00,29.0,27.7,29.84,North,-999,-999.0,-999.0,94,0.00,,,0.00,tws,2013-12-17 11:21:00,
2013-12-17 06:26:00,28.9,27.5,29.84,North,-999,-999.0,-999.0,94,0.00,,,0.00,tws,2013-12-17 11:26:00,
2013-12-17 06:31:00,28.9,27.7,29.84,North,-999,-999.0,-999.0,95,0.00,,,0.00,tws,2013-12-17 11:31:00,
2013-12-17 06:36:00,29.0,27.9,29.84,North,-999,-999.0,-999.0,95,0.00,,,0.00,tws,2013-12-17 11:36:00,
2013-12-17 06:41:00,29.1,28.0,29.84,North,-999,-999.0,-999.0,95,0.00,,,0.00,tws,2013-12-17 11:41:00,
2013-12-17 06:46:00,29.0,27.7,29.84,North,-999,-999.0,-999.0,95,0.00,,,0.00,tws,2013-12-17 11:46:00,
2013-12-17 06:51:00,29.0,27.8,29.83,North,-999,-999.0,-999.0,95,0.00,,,0.00,tws,2013-12-17 11:51:00,
2013-12-17 06:56:00,29.0,27.8,29.83,North,-999,-999.0,-999.0,95,0.00,,,0.00,tws,2013-12-17 11:56:00,
2013-12-17 07:01:00,29.0,28.0,29.83,North,-999,-999.0,-999.0,95,0.00,,,0.00,tws,2013-12-17 12:01:00,
2013-12-17 07:06:00,29.0,27.9,29.84,North,-999,-999.0,-999.0,95,0.00,,,0.00,tws,2013-12-17 12:06:00,
2013-12-17 07:11:00,29.0,27.9,29.83,North,-999,-999.0,-999.0,95,0.00,,,0.00,tws,2013-12-17 12:11:00,
2013-12-17 07:16:00,28.9,27.8,29.83,North,-999,-999.0,-999.0,95,0.00,,,0.00,tws,2013-12-17 12:16:00,
2013-12-17 07:21:00,28.8,27.7,29.83,North,-999,-999.0,-999.0,95,0.00,,,0.00,tws,2013-12-17 12:21:00,
2013-12-17 07:26:00,28.7,27.7,29.84,North,-999,-999.0,-999.0,95,0.00,,,0.00,tws,2013-12-17 12:26:00,
2013-12-17 07:31:00,28.8,27.9,29.84,North,-999,-999.0,-999.0,96,0.00,,,0.00,tws,2013-12-17 12:31:00,
2013-12-17 07:36:00,28.9,28.0,29.84,North,-999,-999.0,-999.0,96,0.00,,,0.00,tws,2013-12-17 12:36:00,
2013-12-17 07:41:00,29.0,28.0,29.84,North,-999,-999.0,-999.0,96,0.00,,,0.00,tws,2013-12-17 12:41:00,
2013-12-17 07:46:00,29.1,28.2,29.84,North,-999,-999.0,-999.0,96,0.00,,,0.00,tws,2013-12-17 12:46:00,
2013-12-17 07:51:00,29.2,28.2,29.83,North,-999,-999.0,-999.0,96,0.00,,,0.00,tws,2013-12-17 12:51:00,
2013-12-17 07:56:00,29.3,28.4,29.84,North,-999,-999.0,-999.0,96,0.00,,,0.00,tws,2013-12-17 12:56:00,
2013-12-17 08:01:00,29.3,28.3,29.84,North,-999,-999.0,-999.0,96,0.00,,,0.00,tws,2013-12-17 13:01:00,
2013-12-17 08:06:00,29.4,28.4,29.84,North,-999,-999.0,-999.0,95,0.00,,,0.00,tws,2013-12-17 13:06:00,
2013-12-17 08:11:00,29.4,28.4,29.84,North,-999,-999.0,-999.0,95,0.00,,,0.00,tws,2013-12-17 13:11:00,
2013-12-17 08:16:00,29.7,28.9,29.83,North,-999,-999.0,-999.0,96,0.00,,,0.00,tws,2013-12-17 13:16:00,
2013-12-17 08:21:00,30.1,29.1,29.83,North,-999,-999.0,-999.0,96,0.00,,,0.00,tws,2013-12-17 13:21:00,
2013-12-17 08:26:00,30.4,29.5,29.83,North,-999,-999.0,-999.0,96,0.00,,,0.00,tws,2013-12-17 13:26:00,
2013-12-17 08:31:00,30.9,29.8,29.83,North,-999,-999.0,-999.0,95,0.00,,,0.00,tws,2013-12-17 13:31:00,
2013-12-17 08:36:00,31.3,30.2,29.83,North,-999,-999.0,-999.0,95,0.00,,,0.00,tws,2013-12-17 13:36:00,
2013-12-17 08:41:00,31.9,30.6,29.84,North,-999,-999.0,-999.0,94,0.00,,,0.00,tws,2013-12-17 13:41:00,
2013-12-17 08:46:00,32.5,31.0,29.83,North,-999,-999.0,-999.0,94,0.00,,,0.00,tws,2013-12-17 13:46:00,
2013-12-17 08:51:00,33.1,31.4,29.83,North,-999,-999.0,-999.0,93,0.00,,,0.00,tws,2013-12-17 13:51:00,
2013-12-17 08:56:00,33.8,31.8,29.83,North,-999,-999.0,-999.0,92,0.00,,,0.00,tws,2013-12-17 13:56:00,
2013-12-17 09:01:00,34.4,32.1,29.83,North,-999,-999.0,-999.0,91,0.00,,,0.00,tws,2013-12-17 14:01:00,
2013-12-17 09:06:00,35.0,32.4,29.83,North,-999,-999.0,-999.0,89,0.00,,,0.00,tws,2013-12-17 14:06:00,
2013-12-17 09:11:00,35.7,32.8,29.83,North,-999,-999.0,-999.0,89,0.00,,,0.00,tws,2013-12-17 14:11:00,
2013-12-17 09:16:00,36.3,33.1,29.83,North,-999,-999.0,-999.0,88,0.00,,,0.00,tws,2013-12-17 14:16:00,
2013-12-17 09:21:00,37.2,33.9,29.83,North,-999,-999.0,-999.0,87,0.00,,,0.00,tws,2013-12-17 14:21:00,
2013-12-17 09:26:00,38.3,34.4,29.83,North,-999,-999.0,-999.0,85,0.00,,,0.00,tws,2013-12-17 14:26:00,
2013-12-17 09:31:00,39.5,34.9,29.83,North,-999,-999.0,-999.0,83,0.00,,,0.00,tws,2013-12-17 14:31:00,
2013-12-17 09:36:00,40.6,35.3,29.83,North,-999,-999.0,-999.0,81,0.00,,,0.00,tws,2013-12-17 14:36:00,
2013-12-17 09:41:00,41.6,35.5,29.83,North,-999,-999.0,-999.0,78,0.00,,,0.00,tws,2013-12-17 14:41:00,
2013-12-17 09:46:00,42.6,35.3,29.83,North,-999,-999.0,-999.0,75,0.00,,,0.00,tws,2013-12-17 14:46:00,
2013-12-17 09:51:00,43.5,35.5,29.83,North,-999,-999.0,-999.0,73,0.00,,,0.00,tws,2013-12-17 14:51:00,
2013-12-17 09:56:00,44.4,35.9,29.82,North,-999,-999.0,-999.0,71,0.00,,,0.00,tws,2013-12-17 14:56:00,
2013-12-17 10:01:00,45.4,36.1,29.82,North,-999,-999.0,-999.0,69,0.00,,,0.00,tws,2013-12-17 15:01:00,
2013-12-17 10:06:00,46.3,36.6,29.82,North,-999,-999.0,-999.0,68,0.00,,,0.00,tws,2013-12-17 15:06:00,
2013-12-17 10:11:00,47.1,36.5,29.82,North,-999,-999.0,-999.0,66,0.00,,,0.00,tws,2013-12-17 15:11:00,
2013-12-17 10:16:00,47.7,36.6,29.82,North,-999,-999.0,-999.0,65,0.00,,,0.00,tws,2013-12-17 15:16:00,
2013-12-17 10:21:00,48.4,36.6,29.82,North,-999,-999.0,-999.0,63,0.00,,,0.00,tws,2013-12-17 15:21:00,
2013-12-17 10:26:00,49.1,36.8,29.82,North,-999,-999.0,-999.0,62,0.00,,,0.00,tws,2013-12-17 15:26:00,
2013-12-17 10:31:00,49.5,36.4,29.82,North,-999,-999.0,-999.0,60,0.00,,,0.00,tws,2013-12-17 15:31:00,
2013-12-17 10:36:00,50.0,37.0,29.82,North,-999,-999.0,-999.0,60,0.00,,,0.00,tws,2013-12-17 15:36:00,
2013-12-17 10:41:00,50.8,37.2,29.82,North,-999,-999.0,-999.0,59,0.00,,,0.00,tws,2013-12-17 15:41:00,
2013-12-17 10:46:00,51.5,36.9,29.81,North,-999,-999.0,-999.0,57,0.00,,,0.00,tws,2013-12-17 15:46:00,
2013-12-17 10:51:00,51.7,35.8,29.81,North,-999,-999.0,-999.0,54,0.00,,,0.00,tws,2013-12-17 15:51:00,
2013-12-17 10:56:00,52.2,36.3,29.81,North,-999,-999.0,-999.0,54,0.00,,,0.00,tws,2013-12-17 15:56:00,
2013-12-17 11:01:00,52.7,37.0,29.81,North,-999,-999.0,-999.0,54,0.00,,,0.00,tws,2013-12-17 16:01:00,
2013-12-17 11:06:00,53.0,36.8,29.80,North,-999,-999.0,-999.0,53,0.00,,,0.00,tws,2013-12-17 16:06:00,
2013-12-17 11:11:00,53.1,36.0,29.80,North,-999,-999.0,-999.0,51,0.00,,,0.00,tws,2013-12-17 16:11:00,
2013-12-17 11:16:00,53.3,36.8,29.80,North,-999,-999.0,-999.0,53,0.00,,,0.00,tws,2013-12-17 16:16:00,
2013-12-17 11:21:00,54.0,37.1,29.80,North,-999,-999.0,-999.0,52,0.00,,,0.00,tws,2013-12-17 16:21:00,
2013-12-17 11:26:00,54.5,36.9,29.79,North,-999,-999.0,-999.0,51,0.00,,,0.00,tws,2013-12-17 16:26:00,
2013-12-17 11:31:00,55.0,37.2,29.79,North,-999,-999.0,-999.0,50,0.00,,,0.00,tws,2013-12-17 16:31:00,
2013-12-17 11:36:00,54.9,36.2,29.79,North,-999,-999.0,-999.0,48,0.00,,,0.00,tws,2013-12-17 16:36:00,
2013-12-17 11:41:00,55.2,0.0,29.78,North,-999,-999.0,-999.0,-160,0.00,,,0.00,tws,2013-12-17 16:41:00,
2013-12-17 11:46:00,55.3,35.7,29.77,North,-999,-999.0,-999.0,47,0.00,,,0.00,tws,2013-12-17 16:46:00,
2013-12-17 11:51:00,55.5,36.1,29.77,North,-999,-999.0,-999.0,47,0.00,,,0.00,tws,2013-12-17 16:51:00,
2013-12-17 11:56:00,55.8,36.0,29.76,North,-999,-999.0,-999.0,47,0.00,,,0.00,tws,2013-12-17 16:56:00,
2013-12-17 12:01:00,55.7,35.3,29.76,North,-999,-999.0,-999.0,46,0.00,,,0.00,tws,2013-12-17 17:01:00,
2013-12-17 12:06:00,55.7,35.6,29.76,North,-999,-999.0,-999.0,46,0.00,,,0.00,tws,2013-12-17 17:06:00,
2013-12-17 12:11:00,55.9,36.0,29.76,North,-999,-999.0,-999.0,46,0.00,,,0.00,tws,2013-12-17 17:11:00,
2013-12-17 12:16:00,55.8,35.0,29.75,North,-999,-999.0,-999.0,45,0.00,,,0.00,tws,2013-12-17 17:16:00,
2013-12-17 12:21:00,55.8,35.2,29.75,North,-999,-999.0,-999.0,45,0.00,,,0.00,tws,2013-12-17 17:21:00,
2013-12-17 12:26:00,56.0,35.7,29.74,North,-999,-999.0,-999.0,46,0.00,,,0.00,tws,2013-12-17 17:26:00,
2013-12-17 12:31:00,55.7,34.6,29.74,North,-999,-999.0,-999.0,44,0.00,,,0.00,tws,2013-12-17 17:31:00,
2013-12-17 12:36:00,55.9,35.1,29.73,North,-999,-999.0,-999.0,45,0.00,,,0.00,tws,2013-12-17 17:36:00,
2013-12-17 12:46:00,56.4,34.7,29.73,North,-999,-999.0,-999.0,43,0.00,,,0.00,tws,2013-12-17 17:46:00,
2013-12-17 12:51:00,56.5,35.5,29.72,North,-999,-999.0,-999.0,44,0.00,,,0.00,tws,2013-12-17 17:51:00,
2013-12-17 12:56:00,56.5,35.0,29.72,North,-999,-999.0,-999.0,44,0.00,,,0.00,tws,2013-12-17 17:56:00,
2013-12-17 13:01:00,56.7,35.2,29.72,North,-999,-999.0,-999.0,44,0.00,,,0.00,tws,2013-12-17 18:01:00,
2013-12-17 13:06:00,57.0,35.6,29.71,North,-999,-999.0,-999.0,44,0.00,,,0.00,tws,2013-12-17 18:06:00,
2013-12-17 13:11:00,57.4,36.0,29.71,North,-999,-999.0,-999.0,44,0.00,,,0.00,tws,2013-12-17 18:11:00,
2013-12-17 13:16:00,57.1,34.7,29.71,North,-999,-999.0,-999.0,42,0.00,,,0.00,tws,2013-12-17 18:16:00,
2013-12-17 13:21:00,57.2,35.2,29.70,North,-999,-999.0,-999.0,43,0.00,,,0.00,tws,2013-12-17 18:21:00,
2013-12-17 13:26:00,57.6,35.8,29.70,North,-999,-999.0,-999.0,43,0.00,,,0.00,tws,2013-12-17 18:26:00,
2013-12-17 13:31:00,57.8,35.6,29.70,North,-999,-999.0,-999.0,43,0.00,,,0.00,tws,2013-12-17 18:31:00,
2013-12-17 13:36:00,57.8,35.4,29.70,North,-999,-999.0,-999.0,42,0.00,,,0.00,tws,2013-12-17 18:36:00,
2013-12-17 13:41:00,57.6,34.4,29.70,North,-999,-999.0,-999.0,41,0.00,,,0.00,tws,2013-12-17 18:41:00,
2013-12-17 13:46:00,57.5,34.8,29.70,North,-999,-999.0,-999.0,42,0.00,,,0.00,tws,2013-12-17 18:46:00,
2013-12-17 13:51:00,57.6,34.8,29.70,North,-999,-999.0,-999.0,41,0.00,,,0.00,tws,2013-12-17 18:51:00,
2013-12-17 13:56:00,57.8,35.4,29.69,North,-999,-999.0,-999.0,42,0.00,,,0.00,tws,2013-12-17 18:56:00,
2013-12-17 14:01:00,58.1,35.4,29.69,North,-999,-999.0,-999.0,42,0.00,,,0.00,tws,2013-12-17 19:01:00,
2013-12-17 14:06:00,58.2,34.8,29.69,North,-999,-999.0,-999.0,40,0.00,,,0.00,tws,2013-12-17 19:06:00,
2013-12-17 14:11:00,58.1,34.6,29.69,North,-999,-999.0,-999.0,40,0.00,,,0.00,tws,2013-12-17 19:11:00,
2013-12-17 14:16:00,58.1,34.3,29.68,North,-999,-999.0,-999.0,40,0.00,,,0.00,tws,2013-12-17 19:16:00,
2013-12-17 14:21:00,57.9,33.8,29.68,North,-999,-999.0,-999.0,39,0.00,,,0.00,tws,2013-12-17 19:21:00,
2013-12-17 14:26:00,57.9,33.7,29.68,North,-999,-999.0,-999.0,39,0.00,,,0.00,tws,2013-12-17 19:26:00,
2013-12-17 14:31:00,57.8,33.5,29.68,North,-999,-999.0,-999.0,39,0.00,,,0.00,tws,2013-12-17 19:31:00,
2013-12-17 14:36:00,57.7,33.6,29.67,North,-999,-999.0,-999.0,39,0.00,,,0.00,tws,2013-12-17 19:36:00,
2013-12-17 14:41:00,57.9,33.9,29.68,North,-999,-999.0,-999.0,40,0.00,,,0.00,tws,2013-12-17 19:41:00,
2013-12-17 14:46:00,58.1,33.9,29.68,North,-999,-999.0,-999.0,39,0.00,,,0.00,tws,2013-12-17 19:46:00,
2013-12-17 14:51:00,58.1,34.3,29.68,North,-999,-999.0,-999.0,40,0.00,,,0.00,tws,2013-12-17 19:51:00,
2013-12-17 14:56:00,58.2,34.7,29.67,North,-999,-999.0,-999.0,40,0.00,,,0.00,tws,2013-12-17 19:56:00,
2013-12-17 15:01:00,58.1,34.4,29.67,North,-999,-999.0,-999.0,40,0.00,,,0.00,tws,2013-12-17 20:01:00,
2013-12-17 15:06:00,57.8,33.8,29.67,North,-999,-999.0,-999.0,40,0.00,,,0.00,tws,2013-12-17 20:06:00,
2013-12-17 15:11:00,57.8,34.1,29.67,North,-999,-999.0,-999.0,40,0.00,,,0.00,tws,2013-12-17 20:11:00,
2013-12-17 15:16:00,57.7,34.3,29.67,North,-999,-999.0,-999.0,41,0.00,,,0.00,tws,2013-12-17 20:16:00,
2013-12-17 15:21:00,57.8,35.1,29.67,North,-999,-999.0,-999.0,42,0.00,,,0.00,tws,2013-12-17 20:21:00,
2013-12-17 15:26:00,57.7,34.8,29.67,North,-999,-999.0,-999.0,41,0.00,,,0.00,tws,2013-12-17 20:26:00,
2013-12-17 15:31:00,57.5,34.6,29.67,North,-999,-999.0,-999.0,41,0.00,,,0.00,tws,2013-12-17 20:31:00,
2013-12-17 15:36:00,57.2,33.7,29.67,North,-999,-999.0,-999.0,40,0.00,,,0.00,tws,2013-12-17 20:36:00,
2013-12-17 15:41:00,56.7,33.4,29.67,North,-999,-999.0,-999.0,40,0.00,,,0.00,tws,2013-12-17 20:41:00,
2013-12-17 15:46:00,56.6,33.7,29.67,North,-999,-999.0,-999.0,41,0.00,,,0.00,tws,2013-12-17 20:46:00,
2013-12-17 15:51:00,56.5,34.1,29.67,North,-999,-999.0,-999.0,42,0.00,,,0.00,tws,2013-12-17 20:51:00,
2013-12-17 15:56:00,56.4,34.5,29.67,North,-999,-999.0,-999.0,43,0.00,,,0.00,tws,2013-12-17 20:56:00,
2013-12-17 16:01:00,56.2,34.3,29.67,North,-999,-999.0,-999.0,43,0.00,,,0.00,tws,2013-12-17 21:01:00,
2013-12-17 16:06:00,56.0,34.3,29.66,North,-999,-999.0,-999.0,43,0.00,,,0.00,tws,2013-12-17 21:06:00,
2013-12-17 16:11:00,55.8,34.5,29.66,North,-999,-999.0,-999.0,44,0.00,,,0.00,tws,2013-12-17 21:11:00,
2013-12-17 16:16:00,55.5,34.2,29.66,North,-999,-999.0,-999.0,44,0.00,,,0.00,tws,2013-12-17 21:16:00,
2013-12-17 16:21:00,55.4,34.7,29.66,North,-999,-999.0,-999.0,45,0.00,,,0.00,tws,2013-12-17 21:21:00,
2013-12-17 16:26:00,55.0,34.1,29.66,North,-999,-999.0,-999.0,44,0.00,,,0.00,tws,2013-12-17 21:26:00,
2013-12-17 16:31:00,55.0,33.9,29.67,North,-999,-999.0,-999.0,44,0.00,,,0.00,tws,2013-12-17 21:31:00,
2013-12-17 16:36:00,54.9,33.9,29.66,North,-999,-999.0,-999.0,44,0.00,,,0.00,tws,2013-12-17 21:36:00,
2013-12-17 16:41:00,54.7,33.7,29.66,North,-999,-999.0,-999.0,44,0.00,,,0.00,tws,2013-12-17 21:41:00,
2013-12-17 16:46:00,54.5,34.1,29.66,North,-999,-999.0,-999.0,45,0.00,,,0.00,tws,2013-12-17 21:46:00,
2013-12-17 16:51:00,54.2,33.7,29.66,North,-999,-999.0,-999.0,45,0.00,,,0.00,tws,2013-12-17 21:51:00,
2013-12-17 16:56:00,54.0,33.9,29.65,North,-999,-999.0,-999.0,46,0.00,,,0.00,tws,2013-12-17 21:56:00,
2013-12-17 17:01:00,53.7,33.8,29.65,North,-999,-999.0,-999.0,46,0.00,,,0.00,tws,2013-12-17 22:01:00,
2013-12-17 17:06:00,53.3,34.1,29.65,North,-999,-999.0,-999.0,47,0.00,,,0.00,tws,2013-12-17 22:06:00,
2013-12-17 17:16:00,52.6,33.4,29.65,North,-999,-999.0,-999.0,47,0.00,,,0.00,tws,2013-12-17 22:16:00,
2013-12-17 17:21:00,52.4,32.9,29.65,North,-999,-999.0,-999.0,47,0.00,,,0.00,tws,2013-12-17 22:21:00,
2013-12-17 17:26:00,52.4,32.7,29.64,North,-999,-999.0,-999.0,46,0.00,,,0.00,tws,2013-12-17 22:26:00,
2013-12-17 17:31:00,52.3,32.3,29.64,North,-999,-999.0,-999.0,46,0.00,,,0.00,tws,2013-12-17 22:31:00,
2013-12-17 17:36:00,52.3,0.0,29.64,North,-999,-999.0,-999.0,-163,0.00,,,0.00,tws,2013-12-17 22:36:00,
2013-12-17 17:41:00,52.2,32.1,29.64,North,-999,-999.0,-999.0,45,0.00,,,0.00,tws,2013-12-17 22:41:00,
2013-12-17 17:46:00,52.1,31.5,29.64,North,-999,-999.0,-999.0,45,0.00,,,0.00,tws,2013-12-17 22:46:00,
2013-12-17 17:51:00,52.1,31.8,29.64,North,-999,-999.0,-999.0,45,0.00,,,0.00,tws,2013-12-17 22:51:00,
2013-12-17 17:56:00,51.9,31.1,29.65,North,-999,-999.0,-999.0,44,0.00,,,0.00,tws,2013-12-17 22:56:00,
2013-12-17 18:01:00,52.1,31.0,29.65,North,-999,-999.0,-999.0,44,0.00,,,0.00,tws,2013-12-17 23:01:00,
2013-12-17 18:06:00,52.4,31.2,29.65,North,-999,-999.0,-999.0,44,0.00,,,0.00,tws,2013-12-17 23:06:00,
2013-12-17 18:11:00,52.3,31.6,29.67,North,-999,-999.0,-999.0,44,0.00,,,0.00,tws,2013-12-17 23:11:00,
2013-12-17 18:16:00,52.1,32.2,29.67,North,-999,-999.0,-999.0,46,0.00,,,0.00,tws,2013-12-17 23:16:00,
2013-12-17 18:21:00,51.6,32.3,29.68,North,-999,-999.0,-999.0,47,0.00,,,0.00,tws,2013-12-17 23:21:00,
2013-12-17 18:26:00,51.3,32.6,29.68,North,-999,-999.0,-999.0,48,0.00,,,0.00,tws,2013-12-17 23:26:00,
2013-12-17 18:31:00,50.8,32.3,29.68,North,-999,-999.0,-999.0,48,0.00,,,0.00,tws,2013-12-17 23:31:00,
2013-12-17 18:36:00,50.6,32.5,29.68,North,-999,-999.0,-999.0,49,0.00,,,0.00,tws,2013-12-17 23:36:00,
2013-12-17 18:41:00,50.5,32.1,29.67,North,-999,-999.0,-999.0,48,0.00,,,0.00,tws,2013-12-17 23:41:00,
2013-12-17 18:46:00,50.5,32.0,29.67,North,-999,-999.0,-999.0,48,0.00,,,0.00,tws,2013-12-17 23:46:00,
2013-12-17 18:51:00,50.7,32.0,29.67,North,-999,-999.0,-999.0,48,0.00,,,0.00,tws,2013-12-17 23:51:00,
2013-12-17 18:56:00,50.8,32.6,29.68,North,-999,-999.0,-999.0,49,0.00,,,0.00,tws,2013-12-17 23:56:00,
2013-12-17 19:01:00,50.7,32.7,29.68,North,-999,-999.0,-999.0,49,0.00,,,0.00,tws,2013-12-18 00:01:00,
2013-12-17 19:06:00,50.5,33.4,29.68,North,-999,-999.0,-999.0,51,0.00,,,0.00,tws,2013-12-18 00:06:00,
2013-12-17 19:11:00,50.1,33.4,29.68,North,-999,-999.0,-999.0,52,0.00,,,0.00,tws,2013-12-18 00:11:00,
2013-12-17 19:16:00,49.9,33.6,29.69,North,-999,-999.0,-999.0,53,0.00,,,0.00,tws,2013-12-18 00:16:00,
2013-12-17 19:21:00,49.7,33.5,29.68,North,-999,-999.0,-999.0,53,0.00,,,0.00,tws,2013-12-18 00:21:00,
2013-12-17 19:26:00,49.4,33.1,29.68,North,-999,-999.0,-999.0,53,0.00,,,0.00,tws,2013-12-18 00:26:00,
2013-12-17 19:31:00,49.2,32.9,29.69,North,-999,-999.0,-999.0,53,0.00,,,0.00,tws,2013-12-18 00:31:00,
2013-12-17 19:36:00,49.1,32.5,29.69,North,-999,-999.0,-999.0,52,0.00,,,0.00,tws,2013-12-18 00:36:00,
2013-12-17 19:41:00,49.2,32.4,29.69,North,-999,-999.0,-999.0,52,0.00,,,0.00,tws,2013-12-18 00:41:00,
2013-12-17 19:51:00,48.9,32.6,29.69,North,-999,-999.0,-999.0,53,0.00,,,0.00,tws,2013-12-18 00:51:00,
2013-12-17 19:56:00,48.7,32.7,29.69,North,-999,-999.0,-999.0,53,0.00,,,0.00,tws,2013-12-18 00:56:00,
2013-12-17 20:01:00,48.4,32.9,29.69,North,-999,-999.0,-999.0,54,0.00,,,0.00,tws,2013-12-18 01:01:00,
2013-12-17 20:06:00,48.3,33.8,29.69,North,-999,-999.0,-999.0,57,0.00,,,0.00,tws,2013-12-18 01:06:00,
2013-12-17 20:11:00,47.8,33.8,29.70,North,-999,-999.0,-999.0,58,0.00,,,0.00,tws,2013-12-18 01:11:00,
2013-12-17 20:16:00,47.5,34.1,29.70,North,-999,-999.0,-999.0,59,0.00,,,0.00,tws,2013-12-18 01:16:00,
2013-12-17 20:21:00,47.1,34.4,29.70,North,-999,-999.0,-999.0,60,0.00,,,0.00,tws,2013-12-18 01:21:00,
2013-12-17 20:26:00,46.6,34.6,29.71,North,-999,-999.0,-999.0,62,0.00,,,0.00,tws,2013-12-18 01:26:00,
2013-12-17 20:31:00,46.3,34.6,29.70,North,-999,-999.0,-999.0,63,0.00,,,0.00,tws,2013-12-18 01:31:00,
2013-12-17 20:36:00,46.0,34.2,29.71,North,-999,-999.0,-999.0,63,0.00,,,0.00,tws,2013-12-18 01:36:00,
2013-12-17 20:41:00,45.8,34.2,29.72,North,-999,-999.0,-999.0,63,0.00,,,0.00,tws,2013-12-18 01:41:00,
2013-12-17 20:46:00,45.5,34.3,29.72,North,-999,-999.0,-999.0,64,0.00,,,0.00,tws,2013-12-18 01:46:00,
2013-12-17 20:51:00,45.4,33.8,29.72,North,-999,-999.0,-999.0,63,0.00,,,0.00,tws,2013-12-18 01:51:00,
2013-12-17 20:56:00,45.3,33.5,29.72,North,-999,-999.0,-999.0,63,0.00,,,0.00,tws,2013-12-18 01:56:00,
2013-12-17 21:01:00,45.0,32.6,29.72,North,-999,-999.0,-999.0,61,0.00,,,0.00,tws,2013-12-18 02:01:00,
2013-12-17 21:06:00,45.0,32.2,29.73,North,-999,-999.0,-999.0,60,0.00,,,0.00,tws,2013-12-18 02:06:00,
2013-12-17 21:11:00,44.8,31.5,29.73,North,-999,-999.0,-999.0,59,0.00,,,0.00,tws,2013-12-18 02:11:00,
2013-12-17 21:16:00,44.7,31.0,29.73,North,-999,-999.0,-999.0,58,0.00,,,0.00,tws,2013-12-18 02:16:00,
2013-12-17 21:21:00,44.5,30.9,29.74,North,-999,-999.0,-999.0,58,0.00,,,0.00,tws,2013-12-18 02:21:00,
2013-12-17 21:26:00,44.2,30.3,29.73,North,-999,-999.0,-999.0,57,0.00,,,0.00,tws,2013-12-18 02:26:00,
2013-12-17 21:31:00,43.9,30.0,29.74,North,-999,-999.0,-999.0,57,0.00,,,0.00,tws,2013-12-18 02:31:00,
2013-12-17 21:36:00,43.5,29.9,29.74,North,-999,-999.0,-999.0,58,0.00,,,0.00,tws,2013-12-18 02:36:00,
2013-12-17 21:41:00,43.2,29.7,29.74,North,-999,-999.0,-999.0,58,0.00,,,0.00,tws,2013-12-18 02:41:00,
2013-12-17 21:46:00,42.9,29.5,29.75,North,-999,-999.0,-999.0,58,0.00,,,0.00,tws,2013-12-18 02:46:00,
2013-12-17 21:51:00,42.7,29.4,29.74,North,-999,-999.0,-999.0,59,0.00,,,0.00,tws,2013-12-18 02:51:00,
2013-12-17 21:56:00,42.4,29.4,29.75,North,-999,-999.0,-999.0,59,0.00,,,0.00,tws,2013-12-18 02:56:00,
2013-12-17 22:01:00,42.1,29.2,29.75,North,-999,-999.0,-999.0,59,0.00,,,0.00,tws,2013-12-18 03:01:00,
2013-12-17 22:06:00,41.9,28.9,29.75,North,-999,-999.0,-999.0,59,0.00,,,0.00,tws,2013-12-18 03:06:00,
2013-12-17 22:11:00,41.7,28.7,29.76,North,-999,-999.0,-999.0,59,0.00,,,0.00,tws,2013-12-18 03:11:00,
2013-12-17 22:16:00,41.5,28.5,29.76,North,-999,-999.0,-999.0,59,0.00,,,0.00,tws,2013-12-18 03:16:00,
2013-12-17 22:21:00,41.3,27.6,29.76,North,-999,-999.0,-999.0,57,0.00,,,0.00,tws,2013-12-18 03:21:00,
2013-12-17 22:26:00,41.0,26.1,29.76,North,-999,-999.0,-999.0,55,0.00,,,0.00,tws,2013-12-18 03:26:00,
2013-12-17 22:31:00,40.9,25.3,29.76,North,-999,-999.0,-999.0,53,0.00,,,0.00,tws,2013-12-18 03:31:00,
2013-12-17 22:36:00,40.7,24.9,29.77,North,-999,-999.0,-999.0,53,0.00,,,0.00,tws,2013-12-18 03:36:00,
2013-12-17 22:41:00,40.4,24.9,29.77,North,-999,-999.0,-999.0,53,0.00,,,0.00,tws,2013-12-18 03:41:00,
2013-12-17 22:46:00,40.1,25.1,29.77,North,-999,-999.0,-999.0,54,0.00,,,0.00,tws,2013-12-18 03:46:00,
2013-12-17 22:51:00,39.9,25.1,29.77,North,-999,-999.0,-999.0,55,0.00,,,0.00,tws,2013-12-18 03:51:00,
2013-12-17 22:56:00,39.7,25.2,29.77,North,-999,-999.0,-999.0,55,0.00,,,0.00,tws,2013-12-18 03:56:00,
2013-12-17 23:01:00,39.4,25.3,29.77,North,-999,-999.0,-999.0,56,0.00,,,0.00,tws,2013-12-18 04:01:00,
2013-12-17 23:06:00,39.2,25.0,29.77,North,-999,-999.0,-999.0,56,0.00,,,0.00,tws,2013-12-18 04:06:00,
2013-12-17 23:11:00,39.0,24.8,29.78,North,-999,-999.0,-999.0,56,0.00,,,0.00,tws,2013-12-18 04:11:00,
2013-12-17 23:16:00,38.8,24.5,29.77,North,-999,-999.0,-999.0,56,0.00,,,0.00,tws,2013-12-18 04:16:00,
2013-12-17 23:21:00,38.6,24.3,29.78,North,-999,-999.0,-999.0,55,0.00,,,0.00,tws,2013-12-18 04:21:00,
2013-12-17 23:26:00,38.5,24.4,29.78,North,-999,-999.0,-999.0,56,0.00,,,0.00,tws,2013-12-18 04:26:00,
2013-12-17 23:31:00,38.3,24.2,29.78,North,-999,-999.0,-999.0,56,0.00,,,0.00,tws,2013-12-18 04:31:00,
2013-12-17 23:36:00,38.2,24.1,29.78,North,-999,-999.0,-999.0,56,0.00,,,0.00,tws,2013-12-18 04:36:00,
2013-12-17 23:41:00,38.0,24.0,29.78,North,-999,-999.0,-999.0,56,0.00,,,0.00,tws,2013-12-18 04:41:00,
2013-12-17 23:46:00,37.8,23.7,29.78,North,-999,-999.0,-999.0,56,0.00,,,0.00,tws,2013-12-18 04:46:00,
2013-12-17 23:51:00,37.8,23.9,29.78,North,-999,-999.0,-999.0,57,0.00,,,0.00,tws,2013-12-18 04:51:00,
2013-12-17 23:56:00,37.6,23.3,29.78,North,-999,-999.0,-999.0,56,0.00,,,0.00,tws,2013-12-18 04:56:00,